logo
App data

Caravanserail

Caravanserail is an arcade-ish trading game. Buy, set a price, and sell. It sounds simple but it'll take you some skill to set the right price according to the market tendencies...
Store | Hub | SteamDB
Developer: Jerome Bodin Publisher: Jerome Bodin
Genre: Indie, Simulation
Languages: English, French
Tags: Indie (25), Simulation (22), Trading (6)
Category: Single-player
Release date: Feb 26, 2016
Price: $2.99
Old userscore: 53% Owners: 0 .. 20,000
Followers: 140
Peak concurrent players yesterday: 1
Playtime total: 00:02 (average) 00:02 (median)

Steam Spy is still in beta, so expect major bugs.

Owners data:

Access restricted.

This feature is only available to users with special access rights. Sorry.

If you want to proceed, you need to register or log in first and then back Steam Spy on Patreon. Look for Indie or Pro pledge.

Don't forget to use the same email as on Steam Spy!

If you've recently backed Steam Spy on Patreon, please note, that it might take around 15 minutes for your access rights to sync. In most cases you'll need to re-login on Steam Spy too.

Audience in 2 weeks:

Access restricted.

This feature is only available to users with special access rights. Sorry.

If you want to proceed, you need to register or log in first and then back Steam Spy on Patreon. Look for Indie or Pro pledge.

Don't forget to use the same email as on Steam Spy!

If you've recently backed Steam Spy on Patreon, please note, that it might take around 15 minutes for your access rights to sync. In most cases you'll need to re-login on Steam Spy too.

Peak daily concurrent players:

CCU data courtesy of SteamDB. Used with permission.

Hourly concurrent players:

Followers over time

Access restricted.

This feature is only available to users with special access rights. Sorry.

If you want to proceed, you need to register or log in first and then back Steam Spy on Patreon. Look for Indie or Pro pledge.

Don't forget to use the same email as on Steam Spy!

If you've recently backed Steam Spy on Patreon, please note, that it might take around 15 minutes for your access rights to sync. In most cases you'll need to re-login on Steam Spy too.

Views for top 50 videos on YouTube for this game:

Games similar to this one:

# Game Release date
Price
Score rank
(Userscore / Metascore)
Owners
Players
Playtime (Median)
1 The Last NightMary - A Lenda do Cabeça de Cuia Nov 2, 2015 $3.99N/A (N/A)58,0000%00:00 (00:00)
2 Burst Mar 14, 2016 N/AN/A (N/A)34,0000%00:00 (00:00)
3 Hustle Cat Mar 16, 2016 $19.99N/A (N/A)64,0000%00:00 (00:00)
4 Mind Games Mar 4, 2016 $2.99N/A (N/A)18,0000%00:00 (00:00)
5 RePete Nov 1, 2015 $1.99N/A (N/A)7,0000%00:00 (00:00)
6 Night Blights Apr 15, 2016 $6.99N/A (N/A)4,0000%00:00 (00:00)
7 Sophie's Curse Mar 16, 2016 $4.99N/A (N/A)45,0000%00:00 (00:00)
8 Broken Dreams Feb 19, 2016 $0.49N/A (N/A)554,0000%00:00 (00:00)
9 Air Missions: HIND Mar 21, 2016 $16.99N/A (N/A)27,0000%00:00 (00:00)
10 SquareCells Dec 7, 2015 $2.99N/A (N/A)64,0000%00:00 (00:00)
11 Rescue Team 5 Sep 30, 2015 $3.99N/A (N/A)14,0000%00:00 (00:00)
12 Forgotten, Not Lost - A Kinetic Novel Apr 2, 2016 $1.99N/A (N/A)44,0000%00:00 (00:00)
13 Lift It Jan 20, 2017 $4.99N/A (N/A)76,0000%00:00 (00:00)
14 12 Labours of Hercules IV: Mother Nature (Platinum Edition) Dec 25, 2015 $2.99N/A (N/A)16,0000%00:00 (00:00)
15 Tennis in the Face Nov 18, 2015 $4.99N/A (N/A)15,0000%00:00 (00:00)
16 Dance Magic Feb 15, 2016 $9.99N/A (N/A)4,0000%00:00 (00:00)
17 Army of Pixels Oct 29, 2015 $4.99N/A (N/A)18,0000%00:00 (00:00)
18 Collisions Jul 28, 2015 $3.99N/A (N/A)46,0000%00:00 (00:00)
19 Robot vs Birds Zombies Jun 1, 2013 $0.99N/A (N/A)669,0000%00:00 (00:00)
20 In Between Aug 21, 2015 $11.99N/A (N/A/68%)82,0000%00:00 (00:00)
21 Alpha Runner Sep 2, 2015 $0.99N/A (N/A)128,0000%00:00 (00:00)
22 12 Labours of Hercules V: Kids of Hellas (Platinum Edition) Jun 17, 2016 $2.99N/A (N/A)16,0000%00:00 (00:00)
23 Darkarta: A Broken Heart's Quest Collector's Edition Mar 8, 2017 $9.99N/A (N/A)85,0000%00:00 (00:00)
24 Dungeon Painter Studio Feb 26, 2017 $14.99N/A (N/A)62,0000%00:00 (00:00)
25 Ninja Stealth 2 Jan 30, 2017 $0.49N/A (N/A)92,0000%00:00 (00:00)
26 Winexy Jan 13, 2017 $0.49N/A (N/A)73,0000%00:00 (00:00)
27 iREC Jan 16, 2017 $2.99N/A (N/A)129,0000%00:00 (00:00)
28 Neon Prism Nov 18, 2016 $10.99N/A (N/A)86,0000%00:00 (00:00)
29 The Survey Oct 27, 2016 $4.99N/A (N/A)44,0000%00:00 (00:00)
30 Archimedes Oct 6, 2016 $1.99N/A (N/A)38,0000%00:00 (00:00)
31 Turbo Pug 3D Sep 20, 2016 $1.99N/A (N/A)348,0000%00:00 (00:00)
32 ConflictCraft Dec 8, 2016 $1.99N/A (N/A)111,0005.26%04:37 (01:32)
33 Asphyxia Aug 4, 2015 $5.99N/A (N/A)31,0000%00:00 (00:00)
34 Totally Unbalanced Jul 29, 2016 FreeN/A (N/A)103,0000%00:00 (00:00)
35 Frog Climbers Oct 6, 2016 $6.99N/A (N/A)23,0000%00:00 (00:00)
36 Magma Tsunami Jun 1, 2016 $0.99N/A (N/A)412,0000%00:00 (00:00)
37 Autumn Sep 23, 2014 $2.99N/A (N/A)119,0000%00:00 (00:00)
38 King's Guard TD Jun 8, 2016 $2.99N/A (N/A)181,0000%00:00 (00:00)
39 Hyposphere May 5, 2016 $2.99N/A (N/A)280,0000%00:00 (00:00)
40 Reptilian Rebellion Aug 8, 2016 $2.99N/A (N/A)66,0000%00:00 (00:00)
41 One Last Chance Apr 7, 2016 $3.99N/A (N/A)24,0000%00:00 (00:00)
42 Love in the Glen Jun 9, 2016 $5.99N/A (N/A)22,0000%00:00 (00:00)
43 Tribloos 2 Jan 12, 2013 $4.99N/A (N/A)124,0000%00:00 (00:00)
44 The Jackbox Party Pack Nov 26, 2014 $24.99N/A (N/A)295,0000%00:00 (00:00)
45 Vampires: Guide Them to Safety! Oct 22, 2014 $4.99N/A (N/A)7,0000%00:00 (00:00)
46 Sinister City Oct 18, 2014 $0.99N/A (N/A)183,0000%00:00 (00:00)
47 Laserlife Sep 22, 2015 $9.99N/A (N/A)36,0000%00:00 (00:00)
48 Quantum Rush Champions Dec 4, 2014 $9.99N/A (N/A)31,0000%00:00 (00:00)
49 A Good Snowman Is Hard To Build Feb 25, 2015 $9.99N/A (N/A)76,0000%00:00 (00:00)
50 Bloop Reloaded Feb 6, 2015 FreeN/A (N/A)172,0000%00:00 (00:00)
51 Cyto Jul 10, 2014 $3.99N/A (N/A)31,0000%00:00 (00:00)
52 European Ship Simulator Nov 4, 2016 $19.99N/A (N/A)110,0000%00:00 (00:00)
53 On Rusty Trails Jun 13, 2016 $12.99N/A (N/A/77%)20,0000%00:00 (00:00)
54 Steam and Metal Feb 9, 2015 $4.99N/A (N/A)15,0000%00:00 (00:00)
55 Paranormal State: Poison Spring Nov 26, 2013 $1.99N/A (N/A)59,0000%00:00 (00:00)
56 Grapple Mar 9, 2015 $6.99N/A (N/A)45,0000%00:00 (00:00)
57 Farm for your Life Jun 5, 2013 $9.99N/A (N/A)93,0000%00:00 (00:00)
58 Girls Like Robots Feb 14, 2014 $6.99N/A (N/A)103,0000%00:00 (00:00)
59 Dead Man's Draw Feb 6, 2014 $6.99N/A (N/A)78,0000%00:00 (00:00)
60 Particulars Nov 19, 2014 FreeN/A (N/A/74%)14,0000%00:00 (00:00)
61 Oozi: Earth Adventure Dec 5, 2013 $0.49N/A (N/A/66%)42,0000%00:00 (00:00)
62 Luxor Evolved Mar 1, 2012 $9.99N/A (N/A)52,0000%00:00 (00:00)
63 Governor of Poker 2 - Premium Edition Oct 11, 2010 $7.99N/A (N/A)27,0000%00:00 (00:00)
64 Chip's Challenge 2 May 28, 2015 $4.99N/A (N/A)26,0000%00:00 (00:00)
65 Wanda - A Beautiful Apocalypse Jun 3, 2016 $1.99N/A (N/A)184,0000%00:00 (00:00)
66 Star Chronicles: Delta Quadrant Jul 7, 2015 $0.99N/A (N/A)423,0000%00:00 (00:00)
67 Koala Kids Jun 22, 2015 $0.49N/A (N/A)99,0000%00:00 (00:00)
68 Fate Tectonics Sep 9, 2015 $0.49N/A (N/A)38,0000%00:00 (00:00)
69 Power of Love Jul 21, 2015 $0.99N/A (N/A)30,0000%00:00 (00:00)
70 Beat Da Beat Mar 10, 2016 $1.99N/A (N/A)21,0000%00:00 (00:00)
71 Egg Returns Home May 5, 2015 $0.99N/A (N/A)75,0000%00:00 (00:00)
72 Alter World May 29, 2015 $1.99N/A (N/A)224,0000%00:00 (00:00)
73 Drizzlepath Mar 12, 2015 $1.99N/A (N/A)32,0000%00:00 (00:00)
74 Pester Jan 25, 2013 $0.99N/A (N/A)105,0000%00:00 (00:00)
75 Thrillville: Off the Rails Oct 9, 2007 $9.99N/A (N/A/70%)38,0000%00:00 (00:00)
76 Terraform May 8, 2015 $2.99N/A (N/A)5,0000%00:00 (00:00)
77 Racecraft Mar 4, 2016 FreeN/A (N/A)42,0000%00:00 (00:00)
78 Streets of Chaos Jan 23, 2015 N/AN/A (N/A)127,0000%00:00 (00:00)
79 Astro Emporia Feb 2, 2015 $0.99N/A (N/A)55,0000%00:00 (00:00)
80 Stay Alight Mar 2, 2015 $3.99N/A (N/A)58,0000%00:00 (00:00)
81 Pixel Puzzles 2: Birds Feb 20, 2015 $4.99N/A (N/A)210,0000%00:00 (00:00)
82 Bob Was Hungry Aug 19, 2015 $9.99N/A (N/A)61,0000%00:00 (00:00)
83 12 Labours of Hercules Mar 23, 2015 $2.99N/A (N/A)183,0000%00:00 (00:00)
84 Marble Duel: Sphere-Matching Tactical Fantasy Nov 12, 2015 $14.99N/A (N/A)72,0000%00:00 (00:00)

Tags over time:

Access restricted.

This feature is only available to users with special access rights. Sorry.

If you want to proceed, you need to register or log in first and then back Steam Spy on Patreon. Look for Indie or Pro pledge.

Don't forget to use the same email as on Steam Spy!

If you've recently backed Steam Spy on Patreon, please note, that it might take around 15 minutes for your access rights to sync. In most cases you'll need to re-login on Steam Spy too.

Owners of this game also own:

Access restricted.

This feature is only available to users with special access rights. Sorry.

If you want to proceed, you need to register or log in first and then back Steam Spy on Patreon. Look for Indie or Pro pledge.

Don't forget to use the same email as on Steam Spy!

If you've recently backed Steam Spy on Patreon, please note, that it might take around 15 minutes for your access rights to sync. In most cases you'll need to re-login on Steam Spy too.

Playtime distribution:

Access restricted.

This feature is only available to users with special access rights. Sorry.

If you want to proceed, you need to register or log in first and then back Steam Spy on Patreon. Look for Indie or Pro pledge.

Don't forget to use the same email as on Steam Spy!

If you've recently backed Steam Spy on Patreon, please note, that it might take around 15 minutes for your access rights to sync. In most cases you'll need to re-login on Steam Spy too.

Playtime (2 weeks):

Access restricted.

This feature is only available to users with special access rights. Sorry.

If you want to proceed, you need to register or log in first and then back Steam Spy on Patreon. Look for Indie or Pro pledge.

Don't forget to use the same email as on Steam Spy!

If you've recently backed Steam Spy on Patreon, please note, that it might take around 15 minutes for your access rights to sync. In most cases you'll need to re-login on Steam Spy too.

User reviews:

Login required.

Please register or log in to see this information.